Volver al catálogo

STARLINK-35662

ActivoComunicacionesVLEO
NORAD 66384·PAYLOAD·🇺🇸 United States

Lanzado Nov 8, 2025 desde Cape Canaveral Space Force Station

Loading…

Próximos Pases (próximas 24 horas)

TLE

ActualizadoSource: CelesTrak SupGP

Época: Sep 15, 2026, 03:32 UTC

1 66384C 25257E   26258.14770833 -.00011743  00000+0 -34701-3 0  2587
2 66384  53.1582  54.5410 0000814  92.7113 324.4902 15.34391357    14

Sigue STARLINK-35662 en tiempo real con AllMySat

Download on the App Store